Location: Unspecified
(53.4075°N, 0.0000°E)
Time: 04:14:04
(UTC+00:00)

Altair 2 - Visible Passes

Search period start: 04 April 2026 00:00
Search period end: 14 April 2026 00:00
Orbit: 750 x 795 km, 89.9° (Epoch: 27 March)

Date Brightness Start Highest point End Pass type
(mag) Time Alt. Az. Time Alt. Az. Time Alt. Az.
4 Apr ? 19:45:32 10° NNE 19:49:39 24° ENE 19:52:40 15° ESE visible
4 Apr ? 21:25:14 10° N 21:30:15 60° W 21:33:03 26° SSW visible
4 Apr ? 23:07:59 10° NW 23:09:24 11° WNW 23:10:49 10° W visible
5 Apr ? 19:11:30 10° NE 19:14:13 14° ENE 19:16:56 10° ESE visible
5 Apr ? 20:50:10 10° N 20:55:18 79° E 20:58:24 25° S visible
5 Apr ? 22:31:24 10° NNW 22:34:54 19° WNW 22:38:24 10° WSW visible
6 Apr ? 20:15:17 10° N 20:20:12 46° E 20:23:45 18° SSE visible
6 Apr ? 21:55:47 10° NNW 22:00:14 31° WNW 22:04:08 13° SW visible
7 Apr ? 19:40:37 10° NNE 19:44:58 27° ENE 19:49:07 11° SE visible
7 Apr ? 21:20:29 10° N 21:25:27 53° W 21:29:30 15° SSW visible
8 Apr ? 20:45:22 10° N 20:50:31 89° E 20:54:53 15° S visible
8 Apr ? 22:26:49 10° NNW 22:30:01 17° WNW 22:33:12 10° WSW visible
9 Apr ? 20:10:26 10° N 20:15:27 52° E 20:20:17 11° SSE visible
9 Apr ? 21:51:05 10° NNW 21:55:23 28° WNW 21:59:42 10° SW visible
10 Apr ? 19:35:42 10° NNE 19:40:14 30° E 19:44:47 10° SE visible
10 Apr ? 21:15:43 10° N 21:20:37 47° W 21:25:33 10° SSW visible
11 Apr ? 20:40:33 10° N 20:45:42 81° W 20:50:54 10° S visible
11 Apr ? 22:22:15 10° NNW 22:25:06 15° WNW 22:27:57 10° W visible
12 Apr ? 20:05:34 10° N 20:10:40 59° E 20:15:47 10° SSE visible
12 Apr ? 21:46:22 10° NNW 21:50:29 25° WNW 21:54:38 10° SW visible
13 Apr ? 19:30:46 10° NNE 19:35:28 34° E 19:40:12 10° SSE visible
13 Apr ? 21:10:56 10° N 21:15:45 41° W 21:20:36 10° SSW visible
